Breeders Fall Classic - INVENTORY--ONLY BIRDS OUT

Station: INVENTORY - T Race

Distance: 10 Miles    

Release: 11-Jun-2019 10:30

Weather Release:    Arrival:

Wind at Release:     Wind at Arrival:

Temp at Release: °    Temp at Arrival: °

Lofts: 109

Birds: 489

Clocked: 437

Good Luck to Everyone!
Drops Pos Breeder Pigeon Name Color Sex Ent Arrival Speed To Win Eligible RedGriz
1 Bushmaster & Nieves Loft - PR 4011-AU19-ARPU Chimuelo BB H 1 11:17:13.80 372.645 00:00:00 Yes
2 Irishsyndicatelofts - AZ 0343-AU19-DUTC BC H 1 11:17:25.40 371.125 00:00:12 Yes
3 3 Stars & A Sun Loft - TX 0412-AU19-STAR BBPW H 1 11:17:47.90 368.214 00:00:34 Yes
4 Tim Byers - OH 9126-AU19-BUCK SILV H 1 11:19:25.30 356.119 00:02:12 Yes
5 King Conch Loft - ON 0116-CU19-KING BBWF H 1 11:19:44.50 353.828 00:02:31 Yes
6 Silicon Valley Syndicates - CA 19005-AU19-SVS BB H 1 11:21:28.70 341.891 00:04:15 Yes
7 Avelino Loft - CA 0327-AU19-HAN BB H 1 11:23:13.20 330.703 00:05:59 Yes
8 Jed Loft - LA 0911-AU19-JED Call 911 BB H 1 11:23:18.20 330.186 00:06:04 Yes
9 Da-Dong - WI 1617-AU19-RAC 8057-2782 BC H 1 11:23:19.00 330.103 00:06:05 Yes
10 Bruce Daehn - FL 0140-AU19-NWFI CHWF H 1 11:23:22.00 329.794 00:06:08 Yes
11 Tim Byers - OH 9119-AU19-BUCK RC H 2 11:23:22.60 329.732 00:06:09 Yes
12 Dave Conover - PA 9075-IF19-DVC BB H 1 11:23:28.20 329.157 00:06:14 Yes
13 Richard Hobson - DE 1804-IF19-LPC BB H 0 11:23:37.30 328.226 Yes
14 De La O/Sino/Baro - CA 9015-AU19-COOK BB H 1 11:23:38.00 328.154 00:06:24 Yes
15 Lindbergh Flyers - MO 9535-AU19-NERP BC H 1 11:23:41.80 327.767 00:06:28 Yes
16 Zekes/Michael - NY 70890-AU19-ARPU BCPW H 1 11:23:44.10 327.533 00:06:30 Yes
17 Apple Cup - WA 2502-AU19-YAK BC H 1 11:23:44.50 327.493 00:06:31 Yes
17 Kai Loft - PA 1008-IF19-KAI BBPD H 1 11:23:44.50 327.493 00:06:31 Yes
19 K T Loft - IN 0407-AU19-KTLF BB H 1 11:23:46.30 327.310 00:06:33 Yes
20 Marengo Creek Farms - AL 3277-AU19-MCF BB H 1 11:23:47.00 327.239 00:06:33 Yes
21 Sheriff & Fabian - PR 3384-IF19-UCPR Silver Phantom RC H 1 11:23:56.10 326.319 00:06:42 Yes
22 S & P Loft - MI 13905-AU19-AA BBPD H 1 11:24:00.40 325.886 00:06:47 Yes
23 Crescendo Loft - NM 4724-AU19-VITA BLPN H 1 11:24:10.60 324.863 00:06:57 Yes
24 Chen Loft - PA 0095-AU19-CHEN NL955/2080 BB H 1 11:24:56.40 320.349 00:07:43 Yes
25 Dan & Greg Coury - AZ 0377-AU19-AONE BC H 1 11:25:28.70 317.241 00:08:15 Yes
26 Cloux Loft - CO 9733-AU19-FH OPAL H 1 11:25:30.40 317.079 00:08:17 Yes
27 Andy Owen - GA 1051-AU19-CGA BBPW H 1 11:25:33.60 316.775 00:08:20 Yes
28 John Fukumoto - HI 0777-AU19-HAWN BB H 1 11:25:39.70 316.196 00:08:26 Yes
29 Tim Byers - OH 9117-AU19-BUCK BBPD H 3 11:25:50.40 315.186 00:08:37 Yes
30 Do Drop In Loft - NC 0042-IF19-TRC SLWF H 1 11:26:02.40 314.061 00:08:49 Yes
31 J & M Partridge Loft - CA 1617-AU19-PASO MELY H 1 11:26:06.10 313.716 00:08:52 Yes
32 Burns Loft - KS 8526-AU19-SWK BB H 1 11:26:06.80 313.651 00:08:53 Yes
33 Gold Country Challenge - CA 0258-AU19-HANG BB H 1 11:26:15.00 312.889 00:09:01 Yes
34 Drama Queen Loft - TX 0938-AU19-GCI BB H 1 11:26:19.90 312.435 00:09:06 Yes
35 Relax /Rolex Loft - CA 80728-AU19-MAN BC H 1 11:26:21.00 312.334 00:09:07 Yes
36 Genesis Syndicate Loft - AZ 0053-AU19-GENS RC H 1 11:26:22.70 312.177 00:09:09 Yes
37 Clear Springs Loft - FL 0073-AU19-WARD RC H 1 11:26:32.20 311.302 00:09:18 Yes
38 Red Ass Ranch - TX 0404-AU19-RAR BBWF H 1 11:26:36.80 310.881 00:09:23 Yes
39 Andy Owen - GA 1053-AU19-CGA BBPW H 2 11:26:38.70 310.707 00:09:25 Yes
40 Columba Loft - GA 9113-AU19-LYCH BC H 1 11:26:41.30 310.470 00:09:27 Yes
41 Cloux Loft - CO 9713-AU19-FH BC H 2 11:27:01.60 308.628 00:09:48 Yes
42 Chen Loft - PA 0666-IF19-LU ALL/112 BB H 2 11:27:03.40 308.465 00:09:50 Yes
43 King Brand Syndicate - IA 66508-AU19-ARPU BB H 1 11:27:04.80 308.339 00:09:51 Yes
44 Smoke And Fire - TX 2403-AU19-TEXS BB H 1 11:27:06.10 308.222 00:09:52 Yes
45 Crescendo Loft - NM 4728-AU19-VITA BB H 2 11:27:09.90 307.881 00:09:56 Yes
46 J & M Partridge Loft - CA 1604-AU19-PASO BB H 2 11:27:10.60 307.818 00:09:57 Yes
47 Era Loft - NY 0601-AU19-BUF BBSP H 1 11:27:13.60 307.549 00:10:00 Yes
48 Marengo Creek Farms - AL 3278-AU19-MCF BB H 2 11:27:18.50 307.111 00:10:05 Yes
49 Rampage Racing - TX 15722-AU19-AA BB H 1 11:27:20.80 306.905 00:10:07 Yes
50 Abilene Loft - OH 1235-AU19-MVS BB H 1 11:27:34.20 305.715 00:10:20 Yes
51 Sunshine Loft 2 - SC 0117-AU19-PAK Nrpl-6535 BB H 1 11:27:36.40 305.520 00:10:23 Yes
52 Crescendo Loft - NM 4727-AU19-VITA BB H 3 11:27:42.00 305.026 00:10:28 Yes
53 Los Cubanitos Loft 2 - GA 0116-AU19-JEDD BC H 1 11:27:42.40 304.991 00:10:29 Yes
54 Chen Loft - PA 0686-IF19-LU TFC1048/ LU269 BB H 3 11:27:46.90 304.595 00:10:33 Yes
55 Holts Loft - NC 0180-AU19-THR BC H 1 11:27:49.10 304.402 00:10:35 Yes
56 Goldstar & Angel Loft - IL 6930-AU19-STAR Blue Ridge Blue BB H 1 11:27:50.80 304.253 00:10:37 Yes
57 Elton Dinga - TX 16113-AU19-AA Klaas 1227 x Diels BC H 1 11:27:53.30 304.034 00:10:39 Yes
58 Iditarod Loft - MT 17267-AU19-AA BB H 1 11:27:57.20 303.693 00:10:43 Yes
59 Da-Dong - WI 1602-AU19-RAC 858-762 BB H 2 11:28:03.40 303.152 00:10:50 Yes
60 Marengo Creek Farms - AL 3402-AU19-MCF BB H 3 11:28:10.60 302.527 00:10:57 Yes
61 Chen Loft - PA 0096-AU19-CHEN 465/203 BC H 4 11:28:16.10 302.051 00:11:02 Yes
62 Cloux Loft - CO 9718-AU19-FH BBWF H 3 11:28:21.00 301.628 00:11:07 Yes
63 Kui's Loft - NY 3009-AU19-JEDD BBWF H 1 11:28:21.70 301.568 00:11:08 Yes
64 Kolvenbag & Son - PA 1344-IF19-KOLV BC 0 1 11:28:23.10 301.447 00:11:09 Yes
65 Ludo Loft - NY 0935-IF19-LUDO Ekez RED H 1 11:28:23.90 301.378 00:11:10 Yes
66 Kolvenbag & Son - PA 1328-IF19-KOLV DC H 2 11:28:27.00 301.112 00:11:13 Yes
67 Torresloft - NC 0701-IF19-TRC BBWF H 1 11:28:39.70 300.026 00:11:26 Yes
68 Walters Loft - NJ 27516-AU19-ARPU BC H 1 11:28:43.80 299.676 00:11:30 Yes
69 Greek Connection - SC 1215-AU19-GREK 529x527 BB H 1 11:28:57.20 298.541 00:11:43 Yes
70 Lin's Loft - CT 0007-AU19-LIN CHSP H 1 11:29:02.50 298.095 00:11:49 Yes
71 K T Loft - IN 0419-AU19-KTLF BB H 2 11:29:04.00 297.968 00:11:50 Yes
72 3 Stars & A Sun Loft - TX 0413-AU19-STAR BCWF H 2 11:29:06.60 297.750 00:11:53 Yes
73 A-Lo-Loft - NY 2867-AU19-FOYS ☯️S6672xD7010☯️ BB H 1 11:29:09.40 297.515 00:11:56 Yes
74 Elton Dinga - TX 16131-AU19-AA Hebberecht x Schaerlaecke BC H 2 11:29:11.20 297.364 00:11:57 Yes
75 Wingsnwindloft - NY 9120-AU19-BISN BB H 1 11:29:11.40 297.348 00:11:58 Yes
76 Bushmaster & Nieves Loft - PR 6805-AU19-ARPU Kill Duo DC H 2 11:29:26.30 296.105 00:12:13 Yes
77 Elton Dinga - TX 16135-AU19-AA Gust Jansen 24235 x 003 BC H 3 11:29:28.70 295.906 00:12:15 Yes
78 Genesis Syndicate Loft - AZ 0770-AU19-GENS BBPW H 2 11:29:31.10 295.707 00:12:17 Yes
79 Notch-Cutter/Karges/Silvio - TX 0024-AU19-USA BCPD H 1 11:29:31.70 295.658 00:12:18 Yes
80 Mike Hines - SD 9168-AU19-GPF BB H 1 11:29:32.70 295.575 00:12:19 Yes
81 Emerson & Donnelly - SC 0227-AU19-MERL BB H 1 11:29:35.10 295.376 00:12:21 Yes
82 Dehesa Valley Classic - CA 19642-AU19-DEHE BB H 1 11:29:38.60 295.087 00:12:25 Yes
83 Salvicon - AZ 0419-AU19-RBPC BBWF H 1 11:29:40.40 294.939 00:12:27 Yes
84 Rodney Morris - ON 0104-CU19-KING BC H 1 11:29:43.00 294.725 00:12:29 Yes
85 Jed Loft - LA 0903-AU19-JED High Class BB H 2 11:29:43.80 294.659 00:12:30 Yes
86 Silicon Valley Syndicates - CA 19111-AU19-SVS BB H 2 11:29:48.60 294.265 00:12:35 Yes
87 Kolvenbag & Son - PA 1313-IF19-KOLV Polar Vortex WHTE H 3 11:29:51.20 294.052 00:12:37 Yes
87 Do Drop In Loft - NC 0024-IF19-TRC BB H 2 11:29:51.20 294.052 00:12:37 Yes
89 Youngblood Loft - UT 0424-AU19-UCA BB H 1 11:29:54.30 293.799 00:12:40 Yes
90 Eastern Pearl Loft - VA 0568-AU19-EPL 🈚️量568=051x263 BBPW H 1 11:29:55.60 293.692 00:12:42 Yes
90 Bushmaster & Nieves Loft - PR 4021-AU19-ARPU Te mataste tu mismo BBPW H 3 11:29:55.60 293.692 00:12:42 Yes
92 Avelino Loft - CA 0323-AU19-HAN BB H 2 11:29:59.80 293.350 00:12:46 Yes
93 De La O/Sino/Baro - CA 9012-AU19-COOK DC H 2 11:30:00.90 293.260 00:12:47 Yes
94 King Conch Loft - ON 0131-CU19-KING BB H 2 11:30:05.60 292.878 00:12:52 Yes
95 Wingsnwindloft - NY 9129-AU19-BISN BBPD H 2 11:30:17.70 291.898 00:13:04 Yes
96 America Loft - IN 0095-AU19-AMER BB H 1 11:30:21.40 291.600 00:13:08 Yes
97 Iditarod Loft - MT 17220-AU19-AA BC H 2 11:30:26.90 291.158 00:13:13 Yes
98 King Conch Loft - ON 0119-CU19-KING BC H 3 11:30:27.90 291.077 00:13:14 Yes
99 Cherokee Loft - MI 0508-AU19-CHEK BC H 1 11:30:28.10 291.061 00:13:14 Yes
100 Columba Loft - GA 9164-AU19-LYCH BB H 2 11:30:34.90 290.517 00:13:21 Yes

There are 501 bird records

Note: These Race Results are unofficial and subject to change until verified by the Race Committee and declared final.